• In Österreich
  • Länderverzeichnis
  • Für 7 Tage
  • Wassertemperatur
  • Satellitenkarten
  • Wetterkarte
  • News
  • Widgets
  • user-avatar
    Anmelden

    Stündliche Wetter Puplovo

    Heute, 18 September, Dienstag

    Zeit Temperatur Niederschläge Wind Luftdruck Luftfeuchtigkeit
    00:00 +12°C° 0.1 mm 4 m/S 740 mmHg 89%
    01:00 +12°C° 0.1 mm 4 m/S 740 mmHg 90%
    02:00 +11°C° 0 mm 3 m/S 740 mmHg 94%
    03:00 +11°C° 0 mm 3 m/S 740 mmHg 95%
    04:00 +11°C° 0 mm 3 m/S 740 mmHg 95%
    05:00 +10°C° 0 mm 4 m/S 740 mmHg 95%
    06:00 +11°C° 0 mm 4 m/S 741 mmHg 93%
    07:00 +11°C° 0 mm 4 m/S 741 mmHg 91%
    08:00 +11°C° 0 mm 4 m/S 742 mmHg 88%
    09:00 +12°C° 0 mm 4 m/S 742 mmHg 82%
    10:00 +13°C° 0 mm 4 m/S 742 mmHg 77%
    11:00 +14°C° 0 mm 4 m/S 742 mmHg 71%
    12:00 +15°C° 0 mm 4 m/S 742 mmHg 66%
    13:00 +15°C° 0 mm 4 m/S 742 mmHg 61%
    14:00 +17°C° 0 mm 3 m/S 743 mmHg 56%
    15:00 +17°C° 0 mm 3 m/S 743 mmHg 61%
    16:00 +16°C° 0 mm 2 m/S 743 mmHg 66%
    17:00 +15°C° 0 mm 2 m/S 743 mmHg 71%
    18:00 +14°C° 0 mm 2 m/S 743 mmHg 76%
    19:00 +13°C° 0 mm 2 m/S 743 mmHg 81%
    20:00 +11°C° 0 mm 1 m/S 743 mmHg 86%
    21:00 +10°C° 0 mm 2 m/S 743 mmHg 87%
    22:00 +10°C° 0 mm 2 m/S 743 mmHg 88%
    23:00 +10°C° 0 mm 2 m/S 743 mmHg 89%

    Morgen, 19 September, Mittwoch

    Zeit Temperatur Niederschläge Wind Luftdruck Luftfeuchtigkeit
    00:00 +10°C° 0 mm 2 m/S 743 mmHg 90%
    01:00 +10°C° 0 mm 2 m/S 743 mmHg 91%
    02:00 +12°C° 0 mm 2 m/S 742 mmHg 92%
    03:00 +12°C° 0 mm 2 m/S 742 mmHg 94%
    04:00 +11°C° 0 mm 3 m/S 742 mmHg 95%
    05:00 +11°C° 0 mm 3 m/S 742 mmHg 96%
    06:00 +12°C° 0 mm 3 m/S 742 mmHg 91%
    07:00 +13°C° 0 mm 3 m/S 742 mmHg 86%
    08:00 +14°C° 0 mm 3 m/S 742 mmHg 81%
    09:00 +17°C° 0 mm 3 m/S 742 mmHg 74%
    10:00 +19°C° 0 mm 3 m/S 742 mmHg 67%
    11:00 +21°C° 0 mm 4 m/S 742 mmHg 59%
    12:00 +22°C° 0 mm 4 m/S 742 mmHg 57%
    13:00 +23°C° 0 mm 4 m/S 741 mmHg 55%
    14:00 +23°C° 0 mm 4 m/S 741 mmHg 53%
    15:00 +22°C° 0 mm 3 m/S 741 mmHg 59%
    16:00 +21°C° 0 mm 3 m/S 741 mmHg 65%
    17:00 +20°C° 0 mm 2 m/S 741 mmHg 72%
    18:00 +19°C° 0 mm 2 m/S 741 mmHg 77%
    19:00 +18°C° 0 mm 2 m/S 741 mmHg 83%
    20:00 +17°C° 0 mm 2 m/S 741 mmHg 89%
    21:00 +16°C° 0 mm 2 m/S 741 mmHg 91%
    22:00 +16°C° 0 mm 2 m/S 741 mmHg 93%
    23:00 +16°C° 0 mm 2 m/S 741 mmHg 95%

    übermorgen, 20 September, Donnerstag

    Zeit Temperatur Niederschläge Wind Luftdruck Luftfeuchtigkeit
    00:00 +16°C° 0 mm 2 m/S 741 mmHg 96%
    01:00 +15°C° 0 mm 2 m/S 742 mmHg 97%
    02:00 +15°C° 0 mm 2 m/S 742 mmHg 97%
    03:00 +14°C° 0 mm 2 m/S 742 mmHg 98%
    04:00 +14°C° 0 mm 2 m/S 742 mmHg 98%
    05:00 +13°C° 0 mm 2 m/S 742 mmHg 98%
    06:00 +14°C° 0 mm 2 m/S 743 mmHg 95%
    07:00 +14°C° 0 mm 2 m/S 743 mmHg 92%
    08:00 +15°C° 0 mm 2 m/S 743 mmHg 89%
    09:00 +17°C° 0 mm 2 m/S 743 mmHg 81%
    10:00 +19°C° 0 mm 2 m/S 743 mmHg 73%
    11:00 +20°C° 0 mm 2 m/S 743 mmHg 65%
    12:00 +21°C° 0 mm 2 m/S 743 mmHg 62%
    13:00 +22°C° 0 mm 3 m/S 743 mmHg 59%
    14:00 +24°C° 0 mm 3 m/S 743 mmHg 56%
    15:00 +23°C° 0 mm 2 m/S 743 mmHg 62%
    16:00 +21°C° 0 mm 2 m/S 743 mmHg 68%
    17:00 +21°C° 0 mm 1 m/S 743 mmHg 73%
    18:00 +19°C° 0 mm 1 m/S 743 mmHg 78%
    19:00 +18°C° 0 mm 1 m/S 743 mmHg 83%
    20:00 +16°C° 0 mm 2 m/S 743 mmHg 88%
    21:00 +15°C° 0 mm 2 m/S 743 mmHg 90%
    22:00 +15°C° 0 mm 2 m/S 743 mmHg 91%
    23:00 +14°C° 0 mm 2 m/S 744 mmHg 92%

    21 September, Freitag

    Zeit Temperatur Niederschläge Wind Luftdruck Luftfeuchtigkeit
    00:00 +14°C° 0 mm 2 m/S 744 mmHg 93%
    01:00 +14°C° 0 mm 2 m/S 744 mmHg 93%
    02:00 +14°C° 0 mm 2 m/S 744 mmHg 94%
    03:00 +14°C° 0 mm 2 m/S 744 mmHg 95%
    04:00 +14°C° 0 mm 2 m/S 744 mmHg 95%
    05:00 +14°C° 0 mm 2 m/S 744 mmHg 96%
    06:00 +15°C° 0 mm 2 m/S 744 mmHg 92%
    07:00 +16°C° 0 mm 2 m/S 744 mmHg 89%
    08:00 +17°C° 0 mm 2 m/S 744 mmHg 85%
    09:00 +19°C° 0 mm 2 m/S 744 mmHg 80%
    10:00 +21°C° 0 mm 3 m/S 744 mmHg 74%
    11:00 +24°C° 0 mm 3 m/S 744 mmHg 69%
    12:00 +25°C° 0 mm 3 m/S 744 mmHg 65%
    13:00 +25°C° 0 mm 3 m/S 744 mmHg 62%
    14:00 +26°C° 0 mm 3 m/S 744 mmHg 58%
    15:00 +25°C° 0.1 mm 3 m/S 743 mmHg 64%
    16:00 +24°C° 0.1 mm 2 m/S 743 mmHg 70%
    17:00 +23°C° 0.1 mm 2 m/S 743 mmHg 76%
    18:00 +21°C° 0 mm 2 m/S 743 mmHg 80%
    19:00 +20°C° 0 mm 3 m/S 743 mmHg 84%
    20:00 +18°C° 0 mm 3 m/S 743 mmHg 88%
    21:00 +18°C° 0 mm 3 m/S 743 mmHg 89%
    22:00 +18°C° 0 mm 3 m/S 742 mmHg 90%
    23:00 +17°C° 0 mm 3 m/S 742 mmHg 91%

    22 September, Samstag

    Zeit Temperatur Niederschläge Wind Luftdruck Luftfeuchtigkeit
    00:00 +17°C° 0 mm 3 m/S 742 mmHg 91%
    01:00 +17°C° 0 mm 3 m/S 741 mmHg 90%
    02:00 +17°C° 0 mm 3 m/S 741 mmHg 90%
    03:00 +15°C° 0 mm 4 m/S 741 mmHg 89%
    04:00 +15°C° 0 mm 4 m/S 740 mmHg 87%
    05:00 +15°C° 0 mm 4 m/S 740 mmHg 86%
    06:00 +17°C° 0 mm 4 m/S 740 mmHg 81%
    07:00 +17°C° 0 mm 5 m/S 739 mmHg 76%
    08:00 +17°C° 0 mm 5 m/S 739 mmHg 71%
    09:00 +20°C° 0 mm 6 m/S 738 mmHg 65%
    10:00 +21°C° 0 mm 6 m/S 738 mmHg 59%
    11:00 +23°C° 0 mm 6 m/S 738 mmHg 53%
    12:00 +23°C° 0 mm 6 m/S 737 mmHg 51%
    13:00 +24°C° 0 mm 6 m/S 737 mmHg 49%
    14:00 +24°C° 0 mm 6 m/S 737 mmHg 47%
    15:00 +23°C° 0.1 mm 5 m/S 737 mmHg 53%
    16:00 +22°C° 0.1 mm 5 m/S 736 mmHg 60%
    17:00 +20°C° 0.1 mm 4 m/S 736 mmHg 66%
    18:00 +18°C° 0.5 mm 4 m/S 737 mmHg 75%
    19:00 +16°C° 0.5 mm 3 m/S 737 mmHg 83%
    20:00 +12°C° 0.5 mm 3 m/S 737 mmHg 91%
    21:00 +12°C° 0.1 mm 3 m/S 737 mmHg 91%
    22:00 +12°C° 0.1 mm 2 m/S 737 mmHg 91%
    23:00 +10°C° 0.1 mm 2 m/S 737 mmHg 91%

    23 September, Sonntag

    Zeit Temperatur Niederschläge Wind Luftdruck Luftfeuchtigkeit
    00:00 +10°C° 0.4 mm 2 m/S 737 mmHg 92%
    01:00 +10°C° 0.4 mm 3 m/S 737 mmHg 92%
    02:00 +9°C° 0.4 mm 3 m/S 737 mmHg 92%
    03:00 +9°C° 1.1 mm 3 m/S 737 mmHg 93%
    04:00 +9°C° 1.1 mm 2 m/S 737 mmHg 93%
    05:00 +8°C° 1.1 mm 2 m/S 737 mmHg 94%
    06:00 +8°C° 0.8 mm 2 m/S 737 mmHg 94%
    07:00 +9°C° 0.8 mm 2 m/S 737 mmHg 94%
    08:00 +9°C° 0.8 mm 2 m/S 737 mmHg 94%
    09:00 +9°C° 0.4 mm 2 m/S 738 mmHg 92%
    10:00 +10°C° 0.4 mm 2 m/S 738 mmHg 91%
    11:00 +10°C° 0.4 mm 2 m/S 738 mmHg 89%
    12:00 +12°C° 0.1 mm 2 m/S 738 mmHg 84%
    13:00 +13°C° 0.1 mm 2 m/S 738 mmHg 80%
    14:00 +12°C° 0.1 mm 3 m/S 738 mmHg 75%
    15:00 +13°C° 0.1 mm 2 m/S 738 mmHg 77%
    16:00 +13°C° 0.1 mm 2 m/S 738 mmHg 78%
    17:00 +12°C° 0.1 mm 2 m/S 738 mmHg 80%
    18:00 +10°C° 0 mm 2 m/S 739 mmHg 84%
    19:00 +9°C° 0 mm 2 m/S 739 mmHg 88%
    20:00 +8°C° 0 mm 2 m/S 739 mmHg 92%
    21:00 +7°C° 0 mm 2 m/S 739 mmHg 93%
    22:00 +7°C° 0 mm 2 m/S 739 mmHg 94%
    23:00 +7°C° 0 mm 2 m/S 739 mmHg 95%
    Mehr zeigen